Time,TemperatureF,DewpointF,PressureIn,WindDirection,WindDirectionDegrees,WindSpeedMPH,WindSpeedGustMPH,Humidity,HourlyPrecipIn,Conditions,Clouds,dailyrainin,SolarRadiationWatts/m^2,SoftwareType,DateUTC
2013-01-29 00:01:00,49.8,49.0,30.29,SSE,159,0.0,0.0,97,0.00,CLR,OVC,0.00,0.0,WeatherDisplay:10.37,2013-01-29 05:01:00,
2013-01-29 00:03:00,49.9,49.1,30.29,SSE,159,0.0,0.0,97,0.00,CLR,OVC,0.00,0.0,WeatherDisplay:10.37,2013-01-29 05:03:00,
2013-01-29 00:08:00,49.9,49.1,30.29,SSE,159,0.0,0.0,97,0.00,CLR,OVC,0.00,0.0,WeatherDisplay:10.37,2013-01-29 05:08:00,
2013-01-29 00:13:00,49.9,49.1,30.29,SSE,159,0.0,0.0,97,0.00,CLR,OVC,0.00,0.0,WeatherDisplay:10.37,2013-01-29 05:13:00,
2013-01-29 00:18:00,49.9,49.1,30.29,SSE,159,0.0,0.0,97,0.00,CLR,OVC,0.00,0.0,WeatherDisplay:10.37,2013-01-29 05:18:00,
2013-01-29 00:23:00,50.0,49.2,30.28,SSE,159,0.0,0.0,97,0.00,CLR,OVC,0.00,0.0,WeatherDisplay:10.37,2013-01-29 05:23:00,
2013-01-29 00:28:00,50.0,49.2,30.28,SW,220,1.2,2.0,97,0.00,CLR,OVC,0.00,0.0,WeatherDisplay:10.37,2013-01-29 05:28:00,
2013-01-29 00:33:00,50.3,49.5,30.28,SW,222,0.0,0.0,97,0.00,CLR,OVC,0.00,0.0,WeatherDisplay:10.37,2013-01-29 05:33:00,
2013-01-29 00:38:00,50.6,49.8,30.28,SW,223,0.2,1.1,97,0.00,CLR,OVC,0.00,0.0,WeatherDisplay:10.37,2013-01-29 05:38:00,
2013-01-29 00:43:00,50.9,50.4,30.28,SW,223,0.1,0.0,98,0.00,CLR,OVC,0.00,0.0,WeatherDisplay:10.37,2013-01-29 05:43:00,
2013-01-29 00:48:00,51.3,50.8,30.28,SW,232,0.8,1.1,98,0.00,CLR,OVC,0.00,0.0,WeatherDisplay:10.37,2013-01-29 05:48:00,
2013-01-29 00:53:00,51.5,51.0,30.28,SW,232,0.7,1.1,98,0.00,CLR,OVC,0.00,0.0,WeatherDisplay:10.37,2013-01-29 05:53:00,
2013-01-29 00:58:00,51.8,51.3,30.28,SW,232,0.0,1.1,98,0.00,CLR,OVC,0.00,0.0,WeatherDisplay:10.37,2013-01-29 05:58:00,
2013-01-29 01:03:00,52.1,51.6,30.28,West,263,0.5,3.5,98,0.00,CLR,OVC,0.00,0.0,WeatherDisplay:10.37,2013-01-29 06:03:00,
2013-01-29 01:08:00,52.3,51.8,30.28,WSW,246,1.4,3.5,98,0.00,CLR,OVC,0.00,0.0,WeatherDisplay:10.37,2013-01-29 06:08:00,
2013-01-29 01:13:00,52.4,51.9,30.28,WSW,246,0.1,1.1,98,0.00,CLR,OVC,0.00,0.0,WeatherDisplay:10.37,2013-01-29 06:13:00,
2013-01-29 01:18:00,52.7,52.2,30.28,WSW,248,0.0,1.1,98,0.00,CLR,OVC,0.00,0.0,WeatherDisplay:10.37,2013-01-29 06:18:00,
2013-01-29 01:23:00,52.8,52.3,30.28,SW,235,0.2,2.3,98,0.00,CLR,OVC,0.00,0.0,WeatherDisplay:10.37,2013-01-29 06:23:00,
2013-01-29 01:28:00,53.0,52.5,30.28,SW,229,1.5,2.3,98,0.00,CLR,OVC,0.00,0.0,WeatherDisplay:10.37,2013-01-29 06:28:00,
2013-01-29 01:33:00,53.1,52.6,30.28,WSW,250,1.4,2.3,98,0.00,CLR,OVC,0.00,0.0,WeatherDisplay:10.37,2013-01-29 06:33:00,
2013-01-29 01:38:00,53.3,52.8,30.28,SSW,209,1.0,3.5,98,0.00,CLR,OVC,0.00,0.0,WeatherDisplay:10.37,2013-01-29 06:38:00,
2013-01-29 01:43:00,53.4,52.8,30.28,SW,234,1.3,2.3,98,0.00,CLR,OVC,0.00,0.0,WeatherDisplay:10.37,2013-01-29 06:43:00,
2013-01-29 01:48:00,53.5,52.9,30.27,WNW,283,1.5,3.5,98,0.00,CLR,OVC,0.00,0.0,WeatherDisplay:10.37,2013-01-29 06:48:00,
2013-01-29 01:53:00,53.5,52.9,30.27,SW,232,0.7,2.3,98,0.00,CLR,OVC,0.00,0.0,WeatherDisplay:10.37,2013-01-29 06:53:00,
2013-01-29 01:58:00,53.4,52.8,30.27,WSW,242,0.8,2.3,98,0.00,CLR,OVC,0.00,0.0,WeatherDisplay:10.37,2013-01-29 06:58:00,
2013-01-29 02:03:00,53.4,52.8,30.27,WSW,241,1.8,3.5,98,0.00,CLR,OVC,0.00,0.0,WeatherDisplay:10.37,2013-01-29 07:03:00,
2013-01-29 02:08:00,53.4,52.8,30.27,SW,232,1.2,2.3,98,0.00,CLR,OVC,0.00,0.0,WeatherDisplay:10.37,2013-01-29 07:08:00,
2013-01-29 02:13:00,53.3,52.8,30.27,WSW,238,0.8,2.3,98,0.00,CLR,OVC,0.00,0.0,WeatherDisplay:10.37,2013-01-29 07:13:00,
2013-01-29 02:18:00,53.3,52.8,30.27,WSW,246,1.4,3.5,98,0.00,CLR,OVC,0.00,0.0,WeatherDisplay:10.37,2013-01-29 07:18:00,
2013-01-29 02:24:00,53.2,52.7,30.27,WSW,254,0.0,0.0,98,0.00,CLR,OVC,0.00,0.0,WeatherDisplay:10.37,2013-01-29 07:24:00,
2013-01-29 02:29:00,53.2,52.7,30.27,WSW,250,0.0,0.0,98,0.00,CLR,OVC,0.00,0.0,WeatherDisplay:10.37,2013-01-29 07:29:00,
2013-01-29 02:34:00,53.2,52.7,30.27,WSW,250,0.8,2.3,98,0.00,CLR,OVC,0.00,0.0,WeatherDisplay:10.37,2013-01-29 07:34:00,
2013-01-29 02:39:00,53.1,52.6,30.27,WSW,245,1.3,2.3,98,0.00,CLR,OVC,0.00,0.0,WeatherDisplay:10.37,2013-01-29 07:39:00,
2013-01-29 02:44:00,53.1,52.6,30.27,SW,225,0.1,1.1,98,0.00,CLR,OVC,0.00,0.0,WeatherDisplay:10.37,2013-01-29 07:44:00,
2013-01-29 02:49:00,53.0,52.5,30.26,SW,227,2.0,3.5,98,0.00,CLR,OVC,0.00,0.0,WeatherDisplay:10.37,2013-01-29 07:49:00,
2013-01-29 02:54:00,52.9,52.4,30.26,NW,304,2.7,4.6,98,0.00,CLR,OVC,0.00,0.0,WeatherDisplay:10.37,2013-01-29 07:54:00,
2013-01-29 02:59:00,52.9,52.4,30.26,West,273,0.5,2.0,98,0.00,CLR,OVC,0.00,0.0,WeatherDisplay:10.37,2013-01-29 07:59:00,
2013-01-29 03:04:00,52.8,52.3,30.26,West,261,1.0,3.5,98,0.00,CLR,OVC,0.00,0.0,WeatherDisplay:10.37,2013-01-29 08:04:00,
2013-01-29 03:09:00,52.8,52.3,30.26,WSW,257,1.8,3.5,98,0.00,CLR,OVC,0.00,0.0,WeatherDisplay:10.37,2013-01-29 08:09:00,
2013-01-29 03:14:00,52.7,52.2,30.26,SW,221,1.0,3.5,98,0.00,CLR,OVC,0.00,0.0,WeatherDisplay:10.37,2013-01-29 08:14:00,
2013-01-29 03:19:00,52.7,52.2,30.26,SW,216,1.2,2.3,98,0.00,CLR,OVC,0.00,0.0,WeatherDisplay:10.37,2013-01-29 08:19:00,
2013-01-29 03:24:00,52.6,52.1,30.26,SSW,211,0.5,2.3,98,0.00,CLR,OVC,0.00,0.0,WeatherDisplay:10.37,2013-01-29 08:24:00,
2013-01-29 03:29:00,52.6,52.1,30.26,West,259,0.9,3.5,98,0.00,CLR,OVC,0.00,0.0,WeatherDisplay:10.37,2013-01-29 08:29:00,
2013-01-29 03:34:00,52.5,52.0,30.26,WSW,239,0.9,2.0,98,0.00,CLR,OVC,0.00,0.0,WeatherDisplay:10.37,2013-01-29 08:34:00,
2013-01-29 03:39:00,52.5,52.0,30.26,SW,217,0.1,1.0,98,0.00,CLR,OVC,0.00,0.0,WeatherDisplay:10.37,2013-01-29 08:39:00,
2013-01-29 03:44:00,52.3,51.8,30.26,SW,217,0.0,0.0,98,0.00,CLR,OVC,0.00,0.0,WeatherDisplay:10.37,2013-01-29 08:44:00,
2013-01-29 03:49:00,52.2,51.7,30.26,SW,217,0.2,1.1,98,0.00,CLR,OVC,0.00,0.0,WeatherDisplay:10.37,2013-01-29 08:49:00,
2013-01-29 03:54:00,52.1,51.3,30.26,SW,232,0.1,1.1,97,0.00,CLR,OVC,0.00,0.0,WeatherDisplay:10.37,2013-01-29 08:54:00,
2013-01-29 03:59:00,52.1,51.3,30.26,SW,232,0.1,1.1,97,0.00,CLR,OVC,0.00,0.0,WeatherDisplay:10.37,2013-01-29 08:59:00,
2013-01-29 04:04:00,52.0,51.2,30.26,SW,232,0.2,2.3,97,0.00,CLR,OVC,0.00,0.0,WeatherDisplay:10.37,2013-01-29 09:04:00,
2013-01-29 04:09:00,51.9,51.1,30.25,SW,232,0.1,0.0,97,0.00,CLR,OVC,0.00,0.0,WeatherDisplay:10.37,2013-01-29 09:09:00,
2013-01-29 04:14:00,51.8,51.3,30.26,SW,232,0.0,0.0,98,0.00,CLR,OVC,0.00,0.0,WeatherDisplay:10.37,2013-01-29 09:14:00,
2013-01-29 04:19:00,51.7,51.2,30.25,SW,232,0.4,2.3,98,0.00,CLR,OVC,0.00,0.0,WeatherDisplay:10.37,2013-01-29 09:19:00,
2013-01-29 04:24:00,51.5,50.7,30.25,SW,230,0.1,1.1,97,0.00,CLR,OVC,0.00,0.0,WeatherDisplay:10.37,2013-01-29 09:24:00,
2013-01-29 04:29:00,51.5,50.7,30.25,SW,230,0.1,2.3,97,0.00,CLR,OVC,0.00,0.0,WeatherDisplay:10.37,2013-01-29 09:29:00,
2013-01-29 04:34:00,51.4,50.6,30.25,SW,230,0.0,1.1,97,0.00,CLR,OVC,0.00,0.0,WeatherDisplay:10.37,2013-01-29 09:34:00,
2013-01-29 04:39:00,51.4,50.9,30.25,SW,230,0.4,2.3,98,0.00,CLR,OVC,0.00,0.0,WeatherDisplay:10.37,2013-01-29 09:39:00,
2013-01-29 04:44:00,51.4,50.9,30.25,SW,217,0.1,2.3,98,0.00,CLR,OVC,0.00,0.0,WeatherDisplay:10.37,2013-01-29 09:44:00,
2013-01-29 04:49:00,51.4,50.9,30.25,SSW,205,1.8,3.5,98,0.00,CLR,OVC,0.00,0.0,WeatherDisplay:10.37,2013-01-29 09:49:00,
2013-01-29 04:54:00,51.4,50.9,30.25,SSW,207,0.6,1.1,98,0.00,CLR,OVC,0.00,0.0,WeatherDisplay:10.37,2013-01-29 09:54:00,
2013-01-29 04:59:00,51.4,50.9,30.25,SSW,207,0.0,0.0,98,0.00,CLR,OVC,0.00,0.0,WeatherDisplay:10.37,2013-01-29 09:59:00,
2013-01-29 05:04:00,51.3,50.8,30.25,SSW,207,0.0,1.1,98,0.00,CLR,OVC,0.00,0.0,WeatherDisplay:10.37,2013-01-29 10:04:00,
2013-01-29 05:09:00,51.2,50.7,30.25,SSW,207,0.0,0.0,98,0.00,CLR,OVC,0.00,0.0,WeatherDisplay:10.37,2013-01-29 10:09:00,
2013-01-29 05:14:00,51.0,50.5,30.25,SSW,207,0.0,0.0,98,0.00,CLR,OVC,0.00,0.0,WeatherDisplay:10.37,2013-01-29 10:14:00,
2013-01-29 05:19:00,50.8,50.0,30.25,SSW,207,0.0,1.1,97,0.00,CLR,OVC,0.00,0.0,WeatherDisplay:10.37,2013-01-29 10:19:00,
2013-01-29 05:24:00,50.8,50.0,30.26,SSW,207,0.3,1.0,97,0.00,CLR,OVC,0.00,0.0,WeatherDisplay:10.37,2013-01-29 10:24:00,
2013-01-29 05:29:00,50.8,50.0,30.26,SSW,207,0.0,0.0,97,0.00,CLR,OVC,0.00,0.0,WeatherDisplay:10.37,2013-01-29 10:29:00,
2013-01-29 05:34:00,50.7,50.2,30.26,SSW,207,0.1,0.0,98,0.00,CLR,OVC,0.00,0.0,WeatherDisplay:10.37,2013-01-29 10:34:00,
2013-01-29 05:39:00,50.5,50.0,30.26,SSW,207,0.3,1.0,98,0.00,CLR,OVC,0.00,0.0,WeatherDisplay:10.37,2013-01-29 10:39:00,
2013-01-29 05:44:00,50.3,49.5,30.26,SSW,207,0.0,2.3,97,0.00,CLR,OVC,0.00,0.0,WeatherDisplay:10.37,2013-01-29 10:44:00,
2013-01-29 05:49:00,50.3,49.8,30.26,SSW,207,0.0,0.0,98,0.00,CLR,OVC,0.00,0.0,WeatherDisplay:10.37,2013-01-29 10:49:00,
2013-01-29 05:54:00,50.1,49.3,30.25,SW,227,0.6,3.5,97,0.00,CLR,OVC,0.00,0.0,WeatherDisplay:10.37,2013-01-29 10:54:00,
2013-01-29 05:59:00,50.1,49.3,30.25,SW,227,0.3,1.1,97,0.00,CLR,OVC,0.00,0.0,WeatherDisplay:10.37,2013-01-29 10:59:00,
2013-01-29 06:04:00,50.0,49.5,30.25,SW,227,0.0,0.0,98,0.00,CLR,OVC,0.00,0.0,WeatherDisplay:10.37,2013-01-29 11:04:00,
2013-01-29 06:09:00,49.9,49.4,30.25,SW,227,0.0,0.0,98,0.00,CLR,OVC,0.00,0.0,WeatherDisplay:10.37,2013-01-29 11:09:00,
2013-01-29 06:14:00,49.8,49.3,30.25,SW,227,0.0,1.1,98,0.00,CLR,OVC,0.00,0.0,WeatherDisplay:10.37,2013-01-29 11:14:00,
2013-01-29 06:19:00,49.8,49.3,30.25,SW,227,1.0,1.1,98,0.00,CLR,OVC,0.00,0.0,WeatherDisplay:10.37,2013-01-29 11:19:00,
2013-01-29 06:24:00,49.9,49.4,30.25,SW,227,1.0,3.0,98,0.00,CLR,OVC,0.01,0.0,WeatherDisplay:10.37,2013-01-29 11:24:00,
2013-01-29 06:29:00,49.9,49.4,30.25,West,259,0.7,3.5,98,0.01,RA,OVC,0.01,0.0,WeatherDisplay:10.37,2013-01-29 11:29:00,
2013-01-29 06:34:00,50.0,49.5,30.25,SW,216,0.2,2.3,98,0.01,RA,OVC,0.01,0.0,WeatherDisplay:10.37,2013-01-29 11:34:00,
2013-01-29 06:39:00,49.9,49.4,30.26,SW,229,0.0,0.0,98,0.01,CLR,OVC,0.01,0.0,WeatherDisplay:10.37,2013-01-29 11:39:00,
2013-01-29 06:44:00,49.9,49.4,30.25,SW,229,0.0,1.0,98,0.01,CLR,OVC,0.01,0.0,WeatherDisplay:10.37,2013-01-29 11:44:00,
2013-01-29 06:49:00,49.8,49.3,30.26,SW,229,0.2,1.1,98,0.01,CLR,OVC,0.01,0.0,WeatherDisplay:10.37,2013-01-29 11:49:00,
2013-01-29 06:54:00,49.8,49.3,30.26,SW,229,0.1,1.1,98,0.01,CLR,OVC,0.01,0.0,WeatherDisplay:10.37,2013-01-29 11:54:00,
2013-01-29 06:59:00,49.6,48.8,30.26,SW,229,0.0,1.1,97,0.01,CLR,OVC,0.01,0.0,WeatherDisplay:10.37,2013-01-29 11:59:00,
2013-01-29 07:04:00,49.5,48.7,30.26,WSW,249,0.9,3.5,97,0.01,OVC,,0.01,0.0,WeatherDisplay:10.37,2013-01-29 12:04:00,
2013-01-29 07:09:00,49.5,48.7,30.26,WSW,238,1.0,3.5,97,0.01,OVC,,0.01,0.0,WeatherDisplay:10.37,2013-01-29 12:09:00,
2013-01-29 07:14:00,49.5,49.0,30.26,WSW,253,1.7,3.5,98,0.01,OVC,,0.01,0.0,WeatherDisplay:10.37,2013-01-29 12:14:00,
2013-01-29 07:19:00,49.6,49.1,30.26,WSW,241,2.0,3.5,98,0.01,OVC,,0.01,0.0,WeatherDisplay:10.37,2013-01-29 12:19:00,
2013-01-29 07:24:00,49.7,49.2,30.26,SW,234,1.7,3.5,98,0.00,OVC,,0.01,0.0,WeatherDisplay:10.37,2013-01-29 12:24:00,
2013-01-29 07:29:00,49.8,49.3,30.26,SSW,202,1.0,3.5,98,0.00,OVC,,0.01,0.0,WeatherDisplay:10.37,2013-01-29 12:29:00,
2013-01-29 07:34:00,49.9,49.4,30.26,SW,219,0.8,2.3,98,0.00,OVC,,0.01,0.0,WeatherDisplay:10.37,2013-01-29 12:34:00,
2013-01-29 07:40:00,50.0,49.5,30.26,WSW,242,1.5,4.0,98,0.00,OVC,,0.01,0.0,WeatherDisplay:10.37,2013-01-29 12:40:00,
2013-01-29 07:45:00,50.4,49.9,30.26,SW,236,1.0,2.3,98,0.00,OVC,,0.01,0.0,WeatherDisplay:10.37,2013-01-29 12:45:00,
2013-01-29 07:50:00,50.6,50.1,30.26,WSW,238,0.1,1.1,98,0.00,OVC,,0.01,0.0,WeatherDisplay:10.37,2013-01-29 12:50:00,
2013-01-29 07:55:00,50.9,50.4,30.26,WSW,238,0.3,1.1,98,0.00,OVC,,0.01,0.0,WeatherDisplay:10.37,2013-01-29 12:55:00,
2013-01-29 08:00:00,51.2,50.7,30.26,WSW,240,0.2,1.1,98,0.00,OVC,,0.01,0.0,WeatherDisplay:10.37,2013-01-29 13:00:00,
2013-01-29 08:05:00,51.7,51.2,30.26,SW,227,0.0,1.0,98,0.00,OVC,,0.01,0.0,WeatherDisplay:10.37,2013-01-29 13:05:00,
2013-01-29 08:10:00,52.0,51.5,30.26,WSW,252,0.5,2.3,98,0.00,OVC,,0.01,0.0,WeatherDisplay:10.37,2013-01-29 13:10:00,
2013-01-29 08:15:00,52.4,51.9,30.26,WSW,252,0.0,0.0,98,0.00,OVC,,0.01,0.0,WeatherDisplay:10.37,2013-01-29 13:15:00,
2013-01-29 08:20:00,52.9,52.4,30.26,West,259,0.0,1.1,98,0.00,OVC,,0.01,0.0,WeatherDisplay:10.37,2013-01-29 13:20:00,
2013-01-29 08:25:00,53.4,52.8,30.26,SW,234,0.3,1.1,98,0.00,OVC,,0.01,0.0,WeatherDisplay:10.37,2013-01-29 13:25:00,
2013-01-29 08:30:00,53.5,52.9,30.26,SW,219,3.3,6.9,98,0.00,OVC,,0.01,0.0,WeatherDisplay:10.37,2013-01-29 13:30:00,
2013-01-29 08:35:00,53.7,52.9,30.26,WSW,258,0.9,3.5,97,0.00,OVC,,0.01,0.0,WeatherDisplay:10.37,2013-01-29 13:35:00,
2013-01-29 08:40:00,53.9,52.8,30.26,WSW,238,2.5,3.5,96,0.00,OVC,,0.01,0.0,WeatherDisplay:10.37,2013-01-29 13:40:00,
2013-01-29 08:45:00,54.0,52.9,30.26,SW,235,2.0,3.5,96,0.00,OVC,,0.01,0.0,WeatherDisplay:10.37,2013-01-29 13:45:00,
2013-01-29 08:50:00,54.3,52.9,30.26,West,260,2.7,3.5,95,0.00,OVC,,0.01,0.0,WeatherDisplay:10.37,2013-01-29 13:50:00,
2013-01-29 08:55:00,54.6,53.2,30.26,West,277,0.4,3.5,95,0.00,OVC,,0.01,0.0,WeatherDisplay:10.37,2013-01-29 13:55:00,
2013-01-29 09:00:00,55.1,53.4,30.26,WSW,249,2.0,3.0,94,0.00,OVC,,0.01,0.0,WeatherDisplay:10.37,2013-01-29 14:00:00,
2013-01-29 09:05:00,55.8,54.4,30.26,West,268,1.2,3.0,95,0.00,OVC,,0.01,0.0,WeatherDisplay:10.37,2013-01-29 14:05:00,
2013-01-29 09:10:00,56.5,54.8,30.26,West,268,0.6,4.6,94,0.00,OVC,,0.01,0.0,WeatherDisplay:10.37,2013-01-29 14:10:00,
2013-01-29 09:15:00,57.3,55.3,30.26,West,277,1.2,2.3,93,0.00,OVC,,0.01,0.0,WeatherDisplay:10.37,2013-01-29 14:15:00,
2013-01-29 09:20:00,57.9,55.3,30.26,SW,233,4.3,6.9,91,0.00,OVC,,0.01,0.0,WeatherDisplay:10.37,2013-01-29 14:20:00,
2013-01-29 09:25:00,58.4,55.5,30.26,WSW,240,2.8,5.8,90,0.00,OVC,,0.01,0.0,WeatherDisplay:10.37,2013-01-29 14:25:00,
2013-01-29 09:30:00,58.8,55.9,30.26,West,263,3.3,5.8,90,0.00,OVC,,0.01,0.0,WeatherDisplay:10.37,2013-01-29 14:30:00,
2013-01-29 09:35:00,59.5,56.3,30.26,West,266,2.8,4.6,89,0.00,OVC,,0.01,0.0,WeatherDisplay:10.37,2013-01-29 14:35:00,
2013-01-29 09:40:00,60.3,57.0,30.26,WNW,298,1.7,3.5,89,0.00,OVC,,0.01,0.0,WeatherDisplay:10.37,2013-01-29 14:40:00,
2013-01-29 09:45:00,60.9,57.3,30.26,NNW,339,0.7,3.5,88,0.00,OVC,,0.01,0.0,WeatherDisplay:10.37,2013-01-29 14:45:00,
2013-01-29 09:50:00,61.5,57.6,30.26,WSW,244,1.6,5.0,87,0.00,OVC,,0.01,0.0,WeatherDisplay:10.37,2013-01-29 14:50:00,
2013-01-29 09:55:00,62.1,57.9,30.26,WSW,250,1.0,3.5,86,0.00,OVC,,0.01,0.0,WeatherDisplay:10.37,2013-01-29 14:55:00,
2013-01-29 10:00:00,62.6,58.4,30.26,SSW,211,0.8,5.0,86,0.00,OVC,,0.01,0.0,WeatherDisplay:10.37,2013-01-29 15:00:00,
2013-01-29 10:05:00,63.1,58.5,30.26,WSW,251,0.7,4.6,85,0.00,OVC,,0.01,0.0,WeatherDisplay:10.37,2013-01-29 15:05:00,
2013-01-29 10:10:00,63.6,59.0,30.26,West,281,3.1,6.9,85,0.00,OVC,,0.01,0.0,WeatherDisplay:10.37,2013-01-29 15:10:00,
2013-01-29 10:15:00,64.4,59.5,30.26,SW,223,0.3,0.0,84,0.00,OVC,,0.01,0.0,WeatherDisplay:10.37,2013-01-29 15:15:00,
2013-01-29 10:20:00,65.4,59.8,30.26,SW,217,0.6,4.6,82,0.00,OVC,,0.01,0.0,WeatherDisplay:10.37,2013-01-29 15:20:00,
2013-01-29 10:25:00,65.8,59.8,30.26,West,270,1.1,4.6,81,0.00,OVC,,0.01,0.0,WeatherDisplay:10.37,2013-01-29 15:25:00,
2013-01-29 10:30:00,66.2,59.8,30.26,WSW,251,1.3,3.5,80,0.00,OVC,,0.01,0.0,WeatherDisplay:10.37,2013-01-29 15:30:00,
2013-01-29 10:35:00,66.4,60.0,30.26,West,259,4.2,8.1,80,0.00,OVC,,0.01,0.0,WeatherDisplay:10.37,2013-01-29 15:35:00,
2013-01-29 10:40:00,66.5,60.1,30.26,West,277,3.0,9.2,80,0.00,OVC,,0.01,0.0,WeatherDisplay:10.37,2013-01-29 15:40:00,
2013-01-29 10:45:00,67.0,60.3,30.25,West,261,3.4,8.1,79,0.00,OVC,,0.01,0.0,WeatherDisplay:10.37,2013-01-29 15:45:00,
2013-01-29 10:50:00,67.5,60.8,30.25,SSW,207,1.5,4.0,79,0.00,OVC,,0.01,0.0,WeatherDisplay:10.37,2013-01-29 15:50:00,
2013-01-29 10:55:00,67.9,60.4,30.25,SW,219,5.7,10.4,77,0.00,OVC,,0.01,0.0,WeatherDisplay:10.37,2013-01-29 15:55:00,
2013-01-29 11:00:00,68.0,60.5,30.25,SW,232,4.8,8.1,77,0.00,OVC,,0.01,0.0,WeatherDisplay:10.37,2013-01-29 16:00:00,
2013-01-29 11:05:00,68.5,61.0,30.24,WSW,244,5.7,8.1,77,0.00,OVC,,0.01,0.0,WeatherDisplay:10.37,2013-01-29 16:05:00,
2013-01-29 11:10:00,69.0,61.1,30.24,West,266,3.3,5.8,76,0.00,OVC,,0.01,0.0,WeatherDisplay:10.37,2013-01-29 16:10:00,
2013-01-29 11:15:00,69.4,61.1,30.24,West,271,5.5,11.5,75,0.00,OVC,,0.01,0.0,WeatherDisplay:10.37,2013-01-29 16:15:00,
2013-01-29 11:20:00,69.7,61.4,30.24,South,181,1.8,3.5,75,0.00,OVC,,0.01,0.0,WeatherDisplay:10.37,2013-01-29 16:20:00,
2013-01-29 11:25:00,70.2,61.5,30.23,WSW,256,4.0,8.1,74,0.00,OVC,,0.01,0.0,WeatherDisplay:10.37,2013-01-29 16:25:00,
2013-01-29 11:30:00,70.7,62.0,30.23,NW,322,4.9,5.8,74,0.00,OVC,,0.01,0.0,WeatherDisplay:10.37,2013-01-29 16:30:00,
2013-01-29 11:35:00,71.1,62.0,30.23,NNW,334,3.4,6.9,73,0.00,OVC,,0.01,0.0,WeatherDisplay:10.37,2013-01-29 16:35:00,
2013-01-29 11:40:00,71.5,62.0,30.22,West,278,3.6,4.6,72,0.00,OVC,,0.01,0.0,WeatherDisplay:10.37,2013-01-29 16:40:00,
2013-01-29 11:45:00,72.0,62.1,30.22,West,278,6.2,11.5,71,0.00,OVC,,0.01,0.0,WeatherDisplay:10.37,2013-01-29 16:45:00,
2013-01-29 11:50:00,72.5,62.6,30.22,SW,227,2.1,5.0,71,0.00,OVC,,0.01,0.0,WeatherDisplay:10.37,2013-01-29 16:50:00,
2013-01-29 11:55:00,73.0,62.6,30.22,WSW,244,1.0,3.5,70,0.00,OVC,,0.01,0.0,WeatherDisplay:10.37,2013-01-29 16:55:00,
2013-01-29 12:00:00,73.5,62.7,30.22,SW,223,3.7,5.8,69,0.00,OVC,,0.01,0.0,WeatherDisplay:10.37,2013-01-29 17:00:00,
2013-01-29 12:06:00,73.7,62.1,30.21,NW,315,3.1,5.8,67,0.00,OVC,,0.01,0.0,WeatherDisplay:10.37,2013-01-29 17:06:00,
2013-01-29 12:11:00,73.8,62.6,30.20,WSW,243,2.3,4.6,68,0.00,OVC,,0.01,0.0,WeatherDisplay:10.37,2013-01-29 17:11:00,
2013-01-29 12:16:00,73.9,62.2,30.20,WSW,248,6.3,11.5,67,0.00,OVC,,0.01,0.0,WeatherDisplay:10.37,2013-01-29 17:16:00,
2013-01-29 12:21:00,73.5,61.9,30.20,WSW,240,6.9,10.4,67,0.00,OVC,,0.01,0.0,WeatherDisplay:10.37,2013-01-29 17:21:00,
2013-01-29 12:26:00,73.1,61.9,30.20,SSW,209,3.7,5.8,68,0.00,OVC,,0.01,0.0,WeatherDisplay:10.37,2013-01-29 17:26:00,
2013-01-29 12:31:00,73.5,62.3,30.19,WSW,249,6.0,11.5,68,0.00,OVC,,0.01,0.0,WeatherDisplay:10.37,2013-01-29 17:31:00,
2013-01-29 12:36:00,73.9,61.8,30.19,WNW,302,6.5,10.4,66,0.00,OVC,,0.01,0.0,WeatherDisplay:10.37,2013-01-29 17:36:00,
2013-01-29 12:41:00,74.1,62.0,30.19,South,181,5.3,9.2,66,0.00,OVC,,0.01,0.0,WeatherDisplay:10.37,2013-01-29 17:41:00,
2013-01-29 12:46:00,74.4,61.9,30.18,SW,231,6.4,10.4,65,0.00,OVC,,0.01,0.0,WeatherDisplay:10.37,2013-01-29 17:46:00,
2013-01-29 12:51:00,74.6,62.1,30.18,SSW,211,3.8,6.9,65,0.00,OVC,,0.01,0.0,WeatherDisplay:10.37,2013-01-29 17:51:00,
2013-01-29 12:56:00,74.7,61.7,30.18,SW,231,6.3,11.5,64,0.00,OVC,,0.01,0.0,WeatherDisplay:10.37,2013-01-29 17:56:00,
2013-01-29 13:01:00,75.0,62.0,30.18,WNW,294,3.0,7.0,64,0.00,OVC,,0.01,0.0,WeatherDisplay:10.37,2013-01-29 18:01:00,
2013-01-29 13:06:00,75.3,61.4,30.18,WNW,283,5.2,9.2,62,0.00,OVC,,0.01,0.0,WeatherDisplay:10.37,2013-01-29 18:06:00,
2013-01-29 13:11:00,75.2,61.7,30.17,WSW,250,5.2,9.0,63,0.00,OVC,,0.01,0.0,WeatherDisplay:10.37,2013-01-29 18:11:00,
2013-01-29 13:16:00,75.2,61.3,30.17,SW,231,3.1,5.8,62,0.00,OVC,,0.01,0.0,WeatherDisplay:10.37,2013-01-29 18:16:00,
2013-01-29 13:21:00,75.4,61.0,30.17,WSW,243,6.2,9.2,61,0.00,OVC,,0.01,0.0,WeatherDisplay:10.37,2013-01-29 18:21:00,
2013-01-29 13:26:00,75.7,61.3,30.17,NW,306,5.0,8.1,61,0.00,OVC,,0.01,0.0,WeatherDisplay:10.37,2013-01-29 18:26:00,
2013-01-29 13:31:00,76.0,61.1,30.17,SW,215,2.4,4.6,60,0.00,OVC,,0.01,0.0,WeatherDisplay:10.37,2013-01-29 18:31:00,
2013-01-29 13:36:00,76.2,61.3,30.16,West,264,4.2,8.1,60,0.00,OVC,,0.01,0.0,WeatherDisplay:10.37,2013-01-29 18:36:00,
2013-01-29 13:41:00,76.7,60.3,30.16,South,188,3.8,6.9,57,0.00,OVC,,0.01,0.0,WeatherDisplay:10.37,2013-01-29 18:41:00,
2013-01-29 13:46:00,77.1,59.7,30.16,SW,219,3.9,6.9,55,0.00,OVC,,0.01,0.0,WeatherDisplay:10.37,2013-01-29 18:46:00,
2013-01-29 13:51:00,77.0,60.1,30.15,West,281,3.3,6.9,56,0.00,OVC,,0.01,0.0,WeatherDisplay:10.37,2013-01-29 18:51:00,
2013-01-29 13:56:00,77.0,60.1,30.15,South,190,3.9,5.8,56,0.00,OVC,,0.01,0.0,WeatherDisplay:10.37,2013-01-29 18:56:00,
2013-01-29 14:01:00,76.9,59.0,30.15,SSE,168,6.4,8.1,54,0.00,OVC,,0.01,0.0,WeatherDisplay:10.37,2013-01-29 19:01:00,
2013-01-29 14:06:00,76.6,58.7,30.15,SSE,152,3.7,5.8,54,0.00,OVC,,0.01,0.0,WeatherDisplay:10.37,2013-01-29 19:06:00,
2013-01-29 14:11:00,76.7,59.3,30.15,West,277,2.9,6.0,55,0.00,OVC,,0.01,0.0,WeatherDisplay:10.37,2013-01-29 19:11:00,
2013-01-29 14:16:00,77.1,59.2,30.14,WSW,244,4.9,9.2,54,0.00,OVC,,0.01,0.0,WeatherDisplay:10.37,2013-01-29 19:16:00,
2013-01-29 14:21:00,77.1,59.2,30.15,SW,232,6.7,8.1,54,0.00,OVC,,0.01,0.0,WeatherDisplay:10.37,2013-01-29 19:21:00,
2013-01-29 14:26:00,77.1,59.2,30.14,WSW,242,2.8,4.6,54,0.00,OVC,,0.01,0.0,WeatherDisplay:10.37,2013-01-29 19:26:00,
2013-01-29 14:31:00,77.1,59.2,30.15,SW,224,4.1,7.0,54,0.00,OVC,,0.01,0.0,WeatherDisplay:10.37,2013-01-29 19:31:00,
2013-01-29 14:36:00,77.1,59.2,30.14,West,268,3.5,8.1,54,0.00,OVC,,0.01,0.0,WeatherDisplay:10.37,2013-01-29 19:36:00,
2013-01-29 14:41:00,77.5,59.5,30.15,WSW,245,6.3,10.4,54,0.00,OVC,,0.01,0.0,WeatherDisplay:10.37,2013-01-29 19:41:00,
2013-01-29 14:46:00,77.5,59.5,30.15,WSW,257,3.0,5.8,54,0.00,OVC,,0.01,0.0,WeatherDisplay:10.37,2013-01-29 19:46:00,
2013-01-29 14:51:00,77.0,59.1,30.15,WSW,257,4.1,8.1,54,0.00,OVC,,0.01,0.0,WeatherDisplay:10.37,2013-01-29 19:51:00,
2013-01-29 14:56:00,76.5,59.1,30.14,WSW,239,4.6,8.1,55,0.00,OVC,,0.01,0.0,WeatherDisplay:10.37,2013-01-29 19:56:00,
2013-01-29 15:00:00,76.3,58.9,30.15,West,275,2.4,4.6,55,0.00,OVC,,0.01,0.0,WeatherDisplay:10.37,2013-01-29 20:00:00,
2013-01-29 15:05:00,76.4,59.5,30.15,WSW,243,2.3,3.5,56,0.00,OVC,,0.01,0.0,WeatherDisplay:10.37,2013-01-29 20:05:00,
2013-01-29 15:10:00,76.4,59.0,30.15,SW,216,4.9,6.9,55,0.00,OVC,,0.01,0.0,WeatherDisplay:10.37,2013-01-29 20:10:00,
2013-01-29 15:15:00,76.1,59.3,30.15,South,176,4.2,8.1,56,0.00,OVC,,0.01,0.0,WeatherDisplay:10.37,2013-01-29 20:15:00,
2013-01-29 15:20:00,76.0,59.2,30.15,WSW,245,3.8,8.1,56,0.00,OVC,,0.01,0.0,WeatherDisplay:10.37,2013-01-29 20:20:00,
2013-01-29 15:25:00,75.8,59.0,30.15,WSW,243,3.1,6.9,56,0.00,OVC,,0.01,0.0,WeatherDisplay:10.37,2013-01-29 20:25:00,
2013-01-29 15:30:00,76.2,58.9,30.15,WNW,294,4.5,11.5,55,0.00,OVC,,0.01,0.0,WeatherDisplay:10.37,2013-01-29 20:30:00,
2013-01-29 15:35:00,76.6,61.7,30.15,South,188,7.5,10.4,60,0.00,OVC,,0.01,0.0,WeatherDisplay:10.37,2013-01-29 20:35:00,
2013-01-29 15:40:00,76.4,62.0,30.15,SSW,212,3.2,6.9,61,0.00,OVC,,0.01,0.0,WeatherDisplay:10.37,2013-01-29 20:40:00,
2013-01-29 15:45:00,76.2,61.3,30.15,South,186,5.9,8.1,60,0.00,OVC,,0.01,0.0,WeatherDisplay:10.37,2013-01-29 20:45:00,
2013-01-29 15:50:00,75.8,61.4,30.15,SW,219,5.0,6.9,61,0.00,OVC,,0.01,0.0,WeatherDisplay:10.37,2013-01-29 20:50:00,
2013-01-29 15:55:00,75.7,61.3,30.15,SSW,212,3.3,5.8,61,0.00,OVC,,0.01,0.0,WeatherDisplay:10.37,2013-01-29 20:55:00,
2013-01-29 16:00:00,75.6,61.7,30.15,South,173,2.3,6.9,62,0.00,OVC,,0.01,0.0,WeatherDisplay:10.37,2013-01-29 21:00:00,
2013-01-29 16:05:00,75.3,61.4,30.16,South,177,6.4,11.5,62,0.00,OVC,,0.01,0.0,WeatherDisplay:10.37,2013-01-29 21:05:00,
2013-01-29 16:10:00,75.0,61.5,30.16,SW,227,3.2,8.1,63,0.00,OVC,,0.01,0.0,WeatherDisplay:10.37,2013-01-29 21:10:00,
2013-01-29 16:15:00,74.9,61.5,30.16,SW,215,2.2,4.6,63,0.00,OVC,,0.01,0.0,WeatherDisplay:10.37,2013-01-29 21:15:00,
2013-01-29 16:20:00,74.8,60.9,30.15,South,174,4.7,8.1,62,0.00,OVC,,0.01,0.0,WeatherDisplay:10.37,2013-01-29 21:20:00,
2013-01-29 16:25:00,74.4,60.5,30.16,WSW,239,3.4,8.1,62,0.00,OVC,,0.01,0.0,WeatherDisplay:10.37,2013-01-29 21:25:00,
2013-01-29 16:30:00,74.0,60.6,30.16,SW,219,4.0,8.1,63,0.00,OVC,,0.01,0.0,WeatherDisplay:10.37,2013-01-29 21:30:00,
2013-01-29 16:35:00,73.7,60.3,30.16,SSW,198,3.7,6.9,63,0.00,OVC,,0.01,0.0,WeatherDisplay:10.37,2013-01-29 21:35:00,
2013-01-29 16:40:00,73.3,60.4,30.15,SSW,198,4.2,9.2,64,0.00,OVC,,0.01,0.0,WeatherDisplay:10.37,2013-01-29 21:40:00,
2013-01-29 16:45:00,72.9,60.4,30.15,South,189,4.0,5.8,65,0.00,OVC,,0.01,0.0,WeatherDisplay:10.37,2013-01-29 21:45:00,
2013-01-29 16:50:00,72.5,60.5,30.16,SSW,213,3.4,5.8,66,0.00,OVC,,0.01,0.0,WeatherDisplay:10.37,2013-01-29 21:50:00,
2013-01-29 16:55:00,72.1,61.0,30.16,SSW,213,3.5,5.8,68,0.00,OVC,,0.01,0.0,WeatherDisplay:10.37,2013-01-29 21:55:00,
2013-01-29 17:00:00,71.7,61.0,30.16,SW,221,3.8,6.0,69,0.00,OVC,,0.01,0.0,WeatherDisplay:10.37,2013-01-29 22:00:00,
2013-01-29 17:05:00,71.3,61.0,30.16,SW,222,3.4,6.9,70,0.00,OVC,,0.01,0.0,WeatherDisplay:10.37,2013-01-29 22:05:00,
2013-01-29 17:10:00,70.9,60.6,30.16,SSW,211,5.4,9.2,70,0.00,OVC,,0.01,0.0,WeatherDisplay:10.37,2013-01-29 22:10:00,
2013-01-29 17:15:00,70.6,60.7,30.15,South,174,1.0,2.3,71,0.00,OVC,,0.01,0.0,WeatherDisplay:10.37,2013-01-29 22:15:00,
2013-01-29 17:20:00,70.3,60.8,30.15,South,175,4.5,6.9,72,0.00,OVC,,0.01,0.0,WeatherDisplay:10.37,2013-01-29 22:20:00,
2013-01-29 17:25:00,69.9,60.8,30.15,SSW,198,4.5,6.9,73,0.00,OVC,,0.01,0.0,WeatherDisplay:10.37,2013-01-29 22:25:00,
2013-01-29 17:30:00,69.6,60.9,30.15,South,178,0.0,0.0,74,0.00,OVC,,0.01,0.0,WeatherDisplay:10.37,2013-01-29 22:30:00,
2013-01-29 17:35:00,69.3,60.7,30.15,South,186,0.0,0.0,74,0.00,OVC,,0.01,0.0,WeatherDisplay:10.37,2013-01-29 22:35:00,
2013-01-29 17:40:00,69.0,60.7,30.14,South,180,0.7,3.5,75,0.00,OVC,,0.01,0.0,WeatherDisplay:10.37,2013-01-29 22:40:00,
2013-01-29 17:45:00,68.7,60.8,30.14,South,190,1.7,3.5,76,0.00,OVC,,0.01,0.0,WeatherDisplay:10.37,2013-01-29 22:45:00,
2013-01-29 17:51:00,68.4,60.5,30.14,South,182,0.5,2.3,76,0.00,OVC,,0.01,0.0,WeatherDisplay:10.37,2013-01-29 22:51:00,
2013-01-29 17:56:00,68.1,60.6,30.14,South,176,1.0,3.5,77,0.00,OVC,,0.01,0.0,WeatherDisplay:10.37,2013-01-29 22:56:00,
2013-01-29 18:01:00,67.8,60.7,30.14,SSW,195,0.3,2.3,78,0.00,OVC,,0.01,0.0,WeatherDisplay:10.37,2013-01-29 23:01:00,
2013-01-29 18:06:00,67.6,60.5,30.14,South,178,0.2,1.1,78,0.00,CLR,OVC,0.01,0.0,WeatherDisplay:10.37,2013-01-29 23:06:00,
2013-01-29 18:11:00,67.2,60.5,30.14,South,190,0.2,1.1,79,0.00,CLR,OVC,0.01,0.0,WeatherDisplay:10.37,2013-01-29 23:11:00,
2013-01-29 18:16:00,66.9,60.5,30.14,South,182,0.4,2.3,80,0.00,CLR,OVC,0.01,0.0,WeatherDisplay:10.37,2013-01-29 23:16:00,
2013-01-29 18:21:00,66.6,60.6,30.15,South,173,1.2,3.5,81,0.00,CLR,OVC,0.01,0.0,WeatherDisplay:10.37,2013-01-29 23:21:00,
2013-01-29 18:26:00,66.2,60.2,30.15,South,172,1.2,3.5,81,0.00,CLR,OVC,0.01,0.0,WeatherDisplay:10.37,2013-01-29 23:26:00,
2013-01-29 18:31:00,66.0,60.3,30.15,South,182,1.0,2.3,82,0.00,CLR,OVC,0.01,0.0,WeatherDisplay:10.37,2013-01-29 23:31:00,
2013-01-29 18:36:00,65.8,60.5,30.15,South,171,3.4,8.1,83,0.00,CLR,OVC,0.01,0.0,WeatherDisplay:10.37,2013-01-29 23:36:00,
2013-01-29 18:41:00,65.6,60.3,30.15,SSW,207,2.8,8.1,83,0.00,CLR,OVC,0.01,0.0,WeatherDisplay:10.37,2013-01-29 23:41:00,
2013-01-29 18:46:00,65.4,60.1,30.15,SSW,193,4.0,9.2,83,0.00,CLR,OVC,0.01,0.0,WeatherDisplay:10.37,2013-01-29 23:46:00,
2013-01-29 18:51:00,65.4,60.1,30.15,South,177,2.5,6.9,83,0.00,CLR,OVC,0.01,0.0,WeatherDisplay:10.37,2013-01-29 23:51:00,
2013-01-29 18:56:00,65.2,60.2,30.15,South,190,2.4,5.0,84,0.00,CLR,OVC,0.01,0.0,WeatherDisplay:10.37,2013-01-29 23:56:00,
2013-01-29 19:01:00,65.1,60.1,30.15,SSE,165,2.6,5.8,84,0.00,CLR,OVC,0.01,0.0,WeatherDisplay:10.37,2013-01-30 00:01:00,
2013-01-29 19:06:00,65.0,60.0,30.15,South,186,2.4,5.8,84,0.00,CLR,OVC,0.01,0.0,WeatherDisplay:10.37,2013-01-30 00:06:00,
2013-01-29 19:11:00,64.8,60.2,30.15,South,190,1.2,3.5,85,0.00,CLR,OVC,0.01,0.0,WeatherDisplay:10.37,2013-01-30 00:11:00,
2013-01-29 19:16:00,64.7,60.1,30.15,South,178,1.9,3.5,85,0.00,CLR,OVC,0.01,0.0,WeatherDisplay:10.37,2013-01-30 00:16:00,
2013-01-29 19:21:00,64.5,59.9,30.15,South,182,3.5,7.0,85,0.00,CLR,OVC,0.01,0.0,WeatherDisplay:10.37,2013-01-30 00:21:00,
2013-01-29 19:26:00,64.4,60.1,30.15,WSW,249,2.7,4.6,86,0.00,CLR,OVC,0.01,0.0,WeatherDisplay:10.37,2013-01-30 00:26:00,
2013-01-29 19:31:00,64.3,60.0,30.15,South,174,2.7,3.5,86,0.00,CLR,OVC,0.01,0.0,WeatherDisplay:10.37,2013-01-30 00:31:00,
2013-01-29 19:36:00,64.2,60.2,30.15,SSW,202,2.5,4.6,87,0.00,CLR,OVC,0.01,0.0,WeatherDisplay:10.37,2013-01-30 00:36:00,
2013-01-29 19:41:00,64.0,60.1,30.15,SSE,165,3.6,6.9,87,0.00,CLR,OVC,0.01,0.0,WeatherDisplay:10.37,2013-01-30 00:41:00,
2013-01-29 19:46:00,63.9,60.0,30.14,SSW,198,3.1,3.5,87,0.00,CLR,OVC,0.01,0.0,WeatherDisplay:10.37,2013-01-30 00:46:00,
2013-01-29 19:51:00,63.9,60.3,30.14,SSW,196,3.1,5.8,88,0.00,CLR,OVC,0.01,0.0,WeatherDisplay:10.37,2013-01-30 00:51:00,
2013-01-29 19:56:00,63.7,60.1,30.14,South,184,3.1,4.6,88,0.00,CLR,OVC,0.01,0.0,WeatherDisplay:10.37,2013-01-30 00:56:00,
2013-01-29 20:01:00,63.5,59.9,30.14,South,190,1.5,3.5,88,0.00,CLR,OVC,0.01,0.0,WeatherDisplay:10.37,2013-01-30 01:01:00,
2013-01-29 20:06:00,63.3,59.7,30.14,South,175,0.8,3.5,88,0.00,CLR,OVC,0.01,0.0,WeatherDisplay:10.37,2013-01-30 01:06:00,
2013-01-29 20:11:00,63.1,59.8,30.15,South,191,2.0,3.5,89,0.00,CLR,OVC,0.01,0.0,WeatherDisplay:10.37,2013-01-30 01:11:00,
2013-01-29 20:16:00,62.9,59.6,30.15,South,170,2.1,3.5,89,0.00,CLR,OVC,0.01,0.0,WeatherDisplay:10.37,2013-01-30 01:16:00,
2013-01-29 20:21:00,62.8,59.8,30.15,SSW,194,1.8,4.0,90,0.00,CLR,OVC,0.01,0.0,WeatherDisplay:10.37,2013-01-30 01:21:00,
2013-01-29 20:26:00,62.6,59.6,30.15,South,171,2.1,3.5,90,0.00,CLR,OVC,0.01,0.0,WeatherDisplay:10.37,2013-01-30 01:26:00,
2013-01-29 20:31:00,62.5,59.5,30.15,South,182,1.5,3.5,90,0.00,CLR,OVC,0.01,0.0,WeatherDisplay:10.37,2013-01-30 01:31:00,
2013-01-29 20:36:00,62.4,59.4,30.15,SSE,161,1.1,2.0,90,0.00,CLR,OVC,0.01,0.0,WeatherDisplay:10.37,2013-01-30 01:36:00,
2013-01-29 20:41:00,62.2,59.5,30.15,South,187,1.1,3.5,91,0.00,CLR,OVC,0.01,0.0,WeatherDisplay:10.37,2013-01-30 01:41:00,
2013-01-29 20:46:00,62.2,59.5,30.15,South,182,0.3,2.3,91,0.00,CLR,OVC,0.01,0.0,WeatherDisplay:10.37,2013-01-30 01:46:00,
2013-01-29 20:51:00,62.0,59.3,30.15,South,186,1.6,3.5,91,0.00,CLR,OVC,0.01,0.0,WeatherDisplay:10.37,2013-01-30 01:51:00,
2013-01-29 20:56:00,61.9,59.2,30.15,SSW,194,0.9,2.3,91,0.00,CLR,OVC,0.01,0.0,WeatherDisplay:10.37,2013-01-30 01:56:00,
2013-01-29 21:01:00,61.8,59.5,30.15,South,175,0.8,2.3,92,0.00,CLR,OVC,0.01,0.0,WeatherDisplay:10.37,2013-01-30 02:01:00,
2013-01-29 21:06:00,61.7,59.4,30.15,SSE,166,1.3,3.5,92,0.00,CLR,OVC,0.01,0.0,WeatherDisplay:10.37,2013-01-30 02:06:00,
2013-01-29 21:11:00,61.6,59.3,30.15,South,171,0.4,2.0,92,0.00,CLR,OVC,0.01,0.0,WeatherDisplay:10.37,2013-01-30 02:11:00,
2013-01-29 21:16:00,61.4,59.1,30.15,South,176,0.9,1.1,92,0.00,CLR,OVC,0.01,0.0,WeatherDisplay:10.37,2013-01-30 02:16:00,
2013-01-29 21:21:00,61.3,59.0,30.15,South,177,0.2,1.1,92,0.00,CLR,OVC,0.01,0.0,WeatherDisplay:10.37,2013-01-30 02:21:00,
2013-01-29 21:26:00,61.2,59.2,30.15,South,182,0.4,3.5,93,0.00,CLR,OVC,0.01,0.0,WeatherDisplay:10.37,2013-01-30 02:26:00,
2013-01-29 21:31:00,61.1,59.1,30.15,South,178,0.0,1.1,93,0.00,CLR,OVC,0.01,0.0,WeatherDisplay:10.37,2013-01-30 02:31:00,
2013-01-29 21:36:00,60.9,58.9,30.15,SSE,157,0.0,1.1,93,0.00,CLR,OVC,0.01,0.0,WeatherDisplay:10.37,2013-01-30 02:36:00,
2013-01-29 21:41:00,60.8,58.8,30.16,SSE,157,0.0,1.0,93,0.00,CLR,OVC,0.01,0.0,WeatherDisplay:10.37,2013-01-30 02:41:00,
2013-01-29 21:46:00,60.4,58.1,30.16,SSE,155,0.1,1.1,92,0.00,CLR,OVC,0.01,0.0,WeatherDisplay:10.37,2013-01-30 02:46:00,
2013-01-29 21:51:00,59.9,57.6,30.16,SSE,155,0.0,1.1,92,0.00,CLR,OVC,0.01,0.0,WeatherDisplay:10.37,2013-01-30 02:51:00,
2013-01-29 21:56:00,59.5,57.2,30.16,SSE,155,0.0,1.1,92,0.00,CLR,OVC,0.01,0.0,WeatherDisplay:10.37,2013-01-30 02:56:00,
2013-01-29 22:01:00,59.2,56.9,30.16,SSE,155,0.0,0.0,92,0.00,CLR,OVC,0.01,0.0,WeatherDisplay:10.37,2013-01-30 03:01:00,
2013-01-29 22:06:00,58.9,56.6,30.16,SSE,155,0.0,0.0,92,0.00,CLR,OVC,0.01,0.0,WeatherDisplay:10.37,2013-01-30 03:06:00,
2013-01-29 22:11:00,58.6,56.6,30.16,SSE,155,0.3,1.1,93,0.00,CLR,OVC,0.01,0.0,WeatherDisplay:10.37,2013-01-30 03:11:00,
2013-01-29 22:16:00,58.3,56.3,30.16,SSE,155,0.0,0.0,93,0.00,CLR,OVC,0.01,0.0,WeatherDisplay:10.37,2013-01-30 03:16:00,
2013-01-29 22:21:00,58.0,56.0,30.16,SSE,155,0.0,0.0,93,0.00,CLR,OVC,0.01,0.0,WeatherDisplay:10.37,2013-01-30 03:21:00,
2013-01-29 22:26:00,57.8,55.8,30.16,SSE,155,0.0,0.0,93,0.00,CLR,OVC,0.01,0.0,WeatherDisplay:10.37,2013-01-30 03:26:00,
2013-01-29 22:31:00,57.6,55.6,30.16,SSE,155,0.0,0.0,93,0.00,CLR,OVC,0.01,0.0,WeatherDisplay:10.37,2013-01-30 03:31:00,
2013-01-29 22:36:00,57.5,55.8,30.16,SSE,155,0.0,0.0,94,0.00,CLR,OVC,0.01,0.0,WeatherDisplay:10.37,2013-01-30 03:36:00,
2013-01-29 22:41:00,57.3,55.6,30.16,SSE,155,0.0,0.0,94,0.00,CLR,OVC,0.01,0.0,WeatherDisplay:10.37,2013-01-30 03:41:00,
2013-01-29 22:46:00,57.2,55.5,30.16,SSE,155,0.0,0.0,94,0.00,CLR,OVC,0.01,0.0,WeatherDisplay:10.37,2013-01-30 03:46:00,
2013-01-29 22:51:00,57.1,55.4,30.16,SSE,155,0.0,0.0,94,0.00,CLR,OVC,0.01,0.0,WeatherDisplay:10.37,2013-01-30 03:51:00,
2013-01-29 22:57:00,57.0,55.6,30.16,SSE,155,0.0,0.0,95,0.00,CLR,OVC,0.01,0.0,WeatherDisplay:10.37,2013-01-30 03:57:00,
2013-01-29 23:01:00,57.0,55.6,30.15,SSE,155,0.0,0.0,95,0.00,CLR,OVC,0.01,0.0,WeatherDisplay:10.37,2013-01-30 04:01:00,
2013-01-29 23:07:00,57.0,55.6,30.16,SSE,155,0.0,0.0,95,0.00,CLR,OVC,0.01,0.0,WeatherDisplay:10.37,2013-01-30 04:07:00,
2013-01-29 23:12:00,56.9,55.5,30.16,SSE,155,0.0,0.0,95,0.00,CLR,OVC,0.01,0.0,WeatherDisplay:10.37,2013-01-30 04:12:00,
2013-01-29 23:17:00,56.8,55.4,30.16,SSE,155,0.0,0.0,95,0.00,CLR,OVC,0.01,0.0,WeatherDisplay:10.37,2013-01-30 04:17:00,
2013-01-29 23:22:00,56.8,55.4,30.15,SSE,155,0.0,0.0,95,0.00,CLR,OVC,0.01,0.0,WeatherDisplay:10.37,2013-01-30 04:22:00,
2013-01-29 23:27:00,56.8,55.7,30.16,SSE,155,0.0,0.0,96,0.00,CLR,OVC,0.01,0.0,WeatherDisplay:10.37,2013-01-30 04:27:00,
2013-01-29 23:32:00,56.7,55.6,30.16,SSE,155,0.0,0.0,96,0.00,CLR,OVC,0.01,0.0,WeatherDisplay:10.37,2013-01-30 04:32:00,
2013-01-29 23:37:00,56.7,55.6,30.16,SSE,155,0.0,0.0,96,0.00,CLR,OVC,0.01,0.0,WeatherDisplay:10.37,2013-01-30 04:37:00,
2013-01-29 23:42:00,56.6,55.5,30.16,SSE,155,0.0,0.0,96,0.00,CLR,OVC,0.01,0.0,WeatherDisplay:10.37,2013-01-30 04:42:00,
2013-01-29 23:47:00,56.5,55.4,30.16,SSE,155,0.0,0.0,96,0.00,CLR,OVC,0.01,0.0,WeatherDisplay:10.37,2013-01-30 04:47:00,
2013-01-29 23:52:00,56.4,55.0,30.16,SSE,155,0.0,0.0,95,0.00,CLR,OVC,0.01,0.0,WeatherDisplay:10.37,2013-01-30 04:52:00,
2013-01-29 23:57:00,56.3,55.2,30.16,SSE,155,0.0,0.0,96,0.00,CLR,OVC,0.01,0.0,WeatherDisplay:10.37,2013-01-30 04:57:00,